Regional Weather Roundup
Issued by NWS

Home | Current Version | Previous Version | Graphics & Text | Print | Product List | Glossary On
Versions: 1 2 3 4 5 6 7 8 9 10 11 12 13 14 15 16 17 18 19 20 21 22 23 24 25 26 27 28 29 30 31 32 33 34 35 36 37 38 39 40 41 42 43 44 45 46 47 48 49 50
000
ASUS45 KSLC 201410
RWRUT

UTAH REGIONAL WEATHER ROUNDUP
NATIONAL WEATHER SERVICE SALT LAKE CITY UT
800 AM MDT SUN MAY 20 2018

UTZ001>011-023>025-201500-

NORTHERN UTAH

CITY           SKY/WX    TMP DP  RH WIND       PRES   REMARKS
BRIGHAM CITY   SUNNY     57  42  57 NW7       29.99S
HILL AFB       SUNNY     56  41  56 E12G28    29.99R
LOGAN          PTSUNNY   52  44  74 CALM      30.01R
OGDEN          SUNNY     61  41  47 CALM      29.97S
SALT LAKE CITY MOSUNNY   64  43  46 SE9       29.96S
TOOELE VALLEY  SUNNY     61  45  55 S10       29.97S
WENDOVER       SUNNY     60  44  55 SE5       29.96R
HEBER CITY       N/A     46  41  81 CALM      30.07R
WEST JORDAN    SUNNY     59  46  61 E3        30.00S

$$

UTZ011>015-024>027-201500-

CENTRAL/NORTHEAST UTAH

CITY           SKY/WX    TMP DP  RH WIND       PRES   REMARKS
PROVO AIRPORT  MOSUNNY   59  46  62 VRB6      30.00R
MOAB/CANYONLAN MOSUNNY   65  37  35 SE9       29.99S
DELTA          SUNNY     54  43  66 NE3       29.98R
PRICE          MOSUNNY   55  40  56 NE9       30.06F
RICHFIELD      SUNNY     48  39  71 CALM      30.04R
ROOSEVELT      SUNNY     52  37  58 CALM      30.12R
VERNAL         SUNNY     57  38  48 CALM      30.10R

$$

UTZ013>016-019>022-027-201500-

SOUTHERN UTAH

CITY           SKY/WX    TMP DP  RH WIND       PRES   REMARKS
BRYCE CANYON   MOSUNNY   43  38  82 W6        30.14R
CEDAR CITY     MOSUNNY   46  39  76 NE3       30.01R
MILFORD        SUNNY     50  42  74 S5        29.99R
ST GEORGE      SUNNY     68  36  30 CALM      29.90R
HANKSVILLE     MOSUNNY   61  37  41 SE3       30.01R
KANAB          SUNNY     59  36  41 NW10      30.03R
BLANDING         N/A     63  26  25 E3        30.13R

$$

REGIONAL REPORTS     COLORADO/ARIZONA

CITY           SKY/WX    TMP DP  RH WIND       PRES   REMARKS
CRAIG, CO      SUNNY     44  40  85 CALM      30.15R
GRAND JUNCTION SUNNY     62  37  39 SE15      30.05R
RIFLE, CO      SUNNY     49  39  68 W3        30.12R
MONTROSE, CO   SUNNY     51  32  48 S7        30.12R
CORTEZ, CO     MOSUNNY   64  31  28 E8        30.08R
COLORADO CITY    N/A     55  36  47 CALM      30.02R
PAGE, AZ       SUNNY     69  37  30 W3        29.94R
GRAND CANYON   SUNNY     52  22  30 CALM      30.10R
KINGMAN, AZ    SUNNY     66  29  24 SE6       29.92R
FLAGSTAFF, AZ  SUNNY     52  25  35 CALM      30.11R

$$

REGIONAL REPORTS    NEVADA/IDAHO/WYOMING

CITY           SKY/WX    TMP DP  RH WIND       PRES   REMARKS
LAS VEGAS, NV  MOSUNNY   72  40  31 CALM      29.84R
ELY, NY        SUNNY     41  37  86 S7        30.04S
ELKO, NV       CLOUDY    50  46  86 CALM      29.99S
POCATELLO, ID  MOSUNNY   52  47  83 CALM      30.00R
BURLEY, ID     CLOUDY    57  47  69 NE7       29.94S
FORT BRIDGER,  CLOUDY    41  41 100 NE5       30.19R
EVANSTON, WY   SUNNY     44  39  82 NE8       30.14R
ROCK SPRINGS,  CLOUDY    40  37  89 NE8       30.18R WCI  34
KEMMERER, WY   MOSUNNY   45  37  76 NE14      30.18R

$$



USA.gov is the U.S. government's official web portal to all federal, state and local government web resources and services.